C/2020 U5 ( PanSTARRS )

Japanese version
Home page
Updated on February 21, 2021

---------------------------------------------------------------------

* Profile

Discovery Date October 22, 2020
Magnitude 20.4 mag
Discoverer Pan-STARRS 1 telescope (Haleakala)

* Pictures

* Orbital Elements

Epoch 2022 Apr. 11.0 TT = JDT 2459680.5
T 2022 Apr. 27.88297 TT                                 Rudenko
q   3.7559267            (2000.0)            P               Q
z  +0.0001705      Peri.   75.41727     +0.04189257     +0.31879708
 +/-0.0000245      Node   107.33628     -0.12787461     -0.93822367
e   0.9993597      Incl.   97.27075     +0.99090519     -0.13455396
From 150 observations 2020 Sept. 25-2021 Jan. 20, mean residual 0".4.

* Finding Charts

* Magnitudes Graph

        m1 = 7.5 + 5 log d + 10.0 log r

---------------------------------------------------------------------

The orbital elements are published on M.P.E.C. 2021-B143.
The charts are made with StellaNavigator Ver.10 (AstroArts).
The magnitudes graphs are made with Comet for Windows.

---------------------------------------------------------------------

Copyright(C) Seiichi Yoshida (comet@aerith.net). All rights reserved.